This is the latest recevied weather packets stored in our database for station/object N0ZJT. If no packets are shown the sender has not sent any weather packets the latest 10 day(s).
| Time | Temp. | Humidity | Pressure | Rain* | Wind** | Luminosity | Snow |
|---|---|---|---|---|---|---|---|
| 1777141730 | 21.67° C | 41% | 976.1 hPa | 0 mm | - | - | - |
| 1777140890 | 21.11° C | 40% | 976.2 hPa | 0 mm | - | - | - |
| 1777139930 | 21.11° C | 40% | 976.2 hPa | 0 mm | - | - | - |
| 1777139090 | 20.56° C | 40% | 976.3 hPa | 0 mm | - | - | - |
| 1777138130 | 20° C | 41% | 976.2 hPa | 0 mm | - | - | - |
| 1777137290 | 20° C | 42% | 976.3 hPa | 0 mm | - | - | - |
| 1777136330 | 19.44° C | 40% | 976.3 hPa | 0 mm | - | - | - |
| 1777135490 | 18.89° C | 44% | 976.5 hPa | 0 mm | - | - | - |
| 1777134530 | 18.89° C | 44% | 976.5 hPa | 0 mm | - | - | - |
| 1777133690 | 18.33° C | 46% | 976.7 hPa | 0 mm | - | - | - |
| 1777132730 | 17.22° C | 46% | 976.5 hPa | 0 mm | - | - | - |
| 1777131890 | 16.67° C | 48% | 976.5 hPa | 0 mm | - | - | - |
| 1777130930 | 16.67° C | 51% | 976.4 hPa | 0 mm | - | - | - |
| 1777130090 | 16.11° C | 50% | 976.3 hPa | 0 mm | - | - | - |
| 1777129130 | 15.56° C | 52% | 976.3 hPa | 0 mm | - | - | - |
| 1777128290 | 15° C | 57% | 976.6 hPa | 0 mm | - | - | - |
| 1777127330 | 14.44° C | 59% | 976.7 hPa | 0 mm | - | - | - |
| 1777126490 | 13.89° C | 64% | 976.5 hPa | 0 mm | - | - | - |
| 1777125530 | 13.33° C | 65% | 977 hPa | 0 mm | - | - | - |
| 1777124690 | 12.78° C | 67% | 977 hPa | 0 mm | - | - | - |
| 1777123730 | 12.22° C | 68% | 976.9 hPa | 0 mm | - | - | - |
| 1777122890 | 11.67° C | 67% | 976.8 hPa | 0 mm | - | - | - |
| 1777121930 | 11.11° C | 67% | 976.8 hPa | 0 mm | - | - | - |
| 1777121090 | 10.56° C | 68% | 976.5 hPa | 0 mm | - | - | - |
| 1777120130 | 9.44° C | 69% | 976.5 hPa | 0 mm | - | - | - |
* Rain latest hour (hover to see other rain measurements)
** Current wind speed in m/s (hover to see current wind gust speed)